DW1824 Weather Reports


time (UTC)temp
F
wind
direction
speed
knots
gust
knots
rain 1hr
in
rain 24hr
in
rain mn
in
humidity
%
barometer
mb
20260505194334 81 129 3.5 7.0 0.00 0.00 0.00 81 1008.7
20260505193340 81 158 1.7 7.8 0.00 0.00 0.00 80 1008.8
20260505192328 81 152 1.7 7.8 0.00 0.00 0.00 81 1008.9
20260505191340 81 155 2.6 5.2 0.00 0.00 0.00 81 1008.9
20260505190401 81 198 1.7 6.1 0.00 0.00 0.00 81 1009.0
20260505185329 81 175 4.3 7.8 0.00 0.00 0.00 80 1009.0
20260505184335 81 187 2.6 13.0 0.00 0.00 0.00 82 1009.0
20260505183336 81 153 2.6 6.1 0.00 0.00 0.00 82 1009.1
20260505182343 80 169 3.5 10.4 0.00 0.00 0.00 82 1009.1
20260505181326 81 169 2.6 10.4 0.00 0.00 0.00 82 1009.2
20260505180346 80 187 2.6 7.0 0.00 0.00 0.00 82 1009.4
20260505175351 80 171 2.6 8.7 0.00 0.00 0.00 83 1009.6
20260505174343 80 167 2.6 6.1 0.00 0.00 0.00 83 1009.7
20260505173324 80 138 1.7 7.8 0.00 0.00 0.00 84 1009.7
20260505172332 80 108 2.6 7.8 0.00 0.00 0.00 83 1009.7
20260505171357 79 159 1.7 4.3 0.00 0.00 0.00 84 1009.7
20260505170339 79 190 2.6 7.8 0.00 0.00 0.00 84 1009.7
20260505165325 79 244 3.5 7.8 0.00 0.00 0.00 85 1009.8
20260505164333 79 184 2.6 11.3 0.00 0.00 0.00 85 1009.9
20260505163336 79 163 1.7 7.0 0.00 0.00 0.00 85 1009.8
20260505162328 79 157 1.7 9.6 0.00 0.00 0.00 85 1009.8
20260505161335 79 148 1.7 9.6 0.00 0.00 0.00 85 1009.6
20260505160338 78 179 2.6 7.0 0.00 0.00 0.00 86 1009.7
20260505153352 77 139 2.6 10.4 0.00 0.00 0.00 89 1009.5
20260505152355 77 126 1.7 4.3 0.00 0.00 0.00 88 1009.4
20260505151340 77 169 3.5 12.2 0.00 0.00 0.00 87 1009.5
20260505150343 77 158 1.7 7.8 0.00 0.00 0.00 88 1009.5
20260505140335 74 183 0.9 2.6 0.00 0.00 0.00 93 1009.2
20260505124350 71 127 1.7 4.3 0.00 0.00 0.00 94 1008.9
20260505123329 71 120 0.9 2.6 0.00 0.00 0.00 94 1009.2
20260505122338 71 125 0.0 2.6 0.00 0.00 0.00 94 1009.0
20260505121325 70 141 0.0 1.7 0.00 0.00 0.00 94 1009.0
20260505120337 70 127 0.0 2.6 0.00 0.00 0.00 94 1008.8
20260505115323 70 120 1.7 2.6 0.00 0.00 0.00 94 1008.7
20260505114330 69 133 0.9 3.5 0.00 0.00 0.00 94 1008.6
20260505113334 69 131 1.7 2.6 0.00 0.00 0.00 94 1008.5
20260505112343 69 130 1.7 2.6 0.00 0.00 0.00 94 1008.7
20260505111331 69 135 0.0 0.9 0.00 0.00 0.00 94 1008.7
20260505110335 69 128 0.9 1.7 0.00 0.00 0.00 94 1008.6
20260505101331 69 165 0.0 0.9 0.00 0.00 0.00 93 1008.7
20260505100334 69 165 0.0 1.7 0.00 0.00 0.00 93 1008.6
20260505095402 69 133 0.9 1.7 0.00 0.00 0.00 93 1008.6
20260505094328 69 152 0.0 0.0 0.00 0.00 0.00 93 1008.9
20260505093331 69 181 0.0 0.0 0.00 0.00 0.00 93 1008.9
20260505092341 69 133 0.0 0.0 0.00 0.00 0.00 93 1008.7
20260505091327 68 142 0.0 0.0 0.00 0.00 0.00 93 1008.9
20260505090326 68 142 0.0 0.0 0.00 0.00 0.00 92 1009.0
20260505085334 68 142 0.0 0.0 0.00 0.00 0.00 92 1009.1
20260505084342 68 142 0.0 0.0 0.00 0.00 0.00 92 1009.1
20260505083326 68 123 0.0 0.9 0.00 0.00 0.00 92 1009.2
20260505082337 69 123 0.9 1.7 0.00 0.00 0.00 92 1009.4
20260505081325 69 117 0.9 1.7 0.00 0.00 0.00 91 1009.4
20260505080330 69 109 0.0 0.9 0.00 0.00 0.00 91 1009.6
20260505075338 69 147 0.0 0.0 0.00 0.00 0.00 91 1009.6
20260505074325 69 168 0.0 1.7 0.00 0.00 0.00 91 1009.6
20260505073328 69 142 0.0 1.7 0.00 0.00 0.00 91 1009.6
20260505072356 69 163 0.0 1.7 0.00 0.00 0.00 90 1009.8
20260505071346 69 139 0.0 1.7 0.00 0.00 0.00 90 1009.8
20260505070329 69 138 1.7 3.5 0.00 0.00 0.00 90 1009.9
20260505065339 69 139 0.9 2.6 0.00 0.00 0.00 90 1009.9
20260505064328 69 136 0.0 3.5 0.00 0.00 0.00 89 1010.1
20260505063351 69 146 1.7 2.6 0.00 0.00 0.00 89 1010.2
20260505062336 70 172 0.9 2.6 0.00 0.00 0.00 89 1010.3
20260505061324 70 141 1.7 4.3 0.00 0.00 0.00 88 1010.3
20260505060328 70 140 1.7 4.3 0.00 0.00 0.00 88 1010.2
20260505055339 70 112 0.9 4.3 0.00 0.00 0.00 87 1010.5
20260505054326 70 167 1.7 4.3 0.00 0.00 0.00 87 1010.5
20260505053331 70 146 1.7 5.2 0.00 0.00 0.00 87 1010.5
20260505052337 70 145 1.7 4.3 0.00 0.00 0.00 87 1010.6
20260505051324 70 134 1.7 2.6 0.00 0.00 0.00 86 1010.8
20260505050328 70 142 0.9 2.6 0.00 0.00 0.00 86 1010.9
20260505041340 71 140 1.7 4.3 0.00 0.00 0.00 84 1011.0
20260505040324 71 133 1.7 5.2 0.00 0.00 0.00 83 1011.0
20260505035332 71 135 1.7 3.5 0.00 0.00 0.00 83 1011.1
20260505034338 71 137 1.7 5.2 0.00 0.00 0.00 83 1011.0
20260505033324 71 132 2.6 5.2 0.00 0.00 0.00 83 1011.1
20260505032330 72 146 1.7 7.0 0.00 0.00 0.00 82 1011.1
20260505031356 72 130 2.6 5.2 0.00 0.00 0.00 82 1011.2
20260505030337 72 136 1.7 4.3 0.00 0.00 0.00 81 1011.2
20260505025346 72 140 2.6 6.1 0.00 0.00 0.00 81 1011.0
20260505024332 72 142 2.6 4.3 0.00 0.00 0.00 81 1011.0
20260505023340 72 117 2.6 4.3 0.00 0.00 0.00 80 1011.0
20260505022329 73 141 2.6 5.2 0.00 0.00 0.00 80 1011.1
20260505021341 73 136 2.6 6.1 0.00 0.00 0.00 79 1011.0
20260505020326 73 138 2.6 6.1 0.00 0.00 0.00 78 1010.7
20260505015354 74 139 1.7 6.1 0.00 0.00 0.00 78 1010.6
20260505014336 74 164 1.7 6.1 0.00 0.00 0.00 76 1010.6
20260505013400 75 147 1.7 5.2 0.00 0.00 0.00 76 1010.5
20260505012326 75 140 2.6 6.1 0.00 0.00 0.00 75 1010.4
20260505011334 75 105 3.5 7.0 0.00 0.00 0.00 76 1010.2
20260505010340 75 141 2.6 5.2 0.00 0.00 0.00 76 1010.1
20260505005350 75 135 2.6 4.3 0.00 0.00 0.00 75 1010.3
20260505004359 76 134 2.6 3.5 0.00 0.00 0.00 74 1010.3
20260505003337 77 140 1.7 5.2 0.00 0.00 0.00 72 1010.3
20260505002322 77 159 1.7 5.2 0.00 0.00 0.00 71 1010.3
20260505001330 77 167 0.9 5.2 0.00 0.00 0.00 71 1010.3
20260505000352 78 160 2.6 9.6 0.00 0.00 0.00 69 1010.3
20260504235338 79 177 4.3 8.7 0.00 0.00 0.00 67 1010.2
20260504234325 79 158 2.6 6.1 0.00 0.00 0.00 68 1010.2
20260504233347 79 143 2.6 9.6 0.00 0.00 0.00 67 1010.6
20260504232333 78 148 2.6 7.0 0.00 0.00 0.00 69 1010.5
20260504231400 78 146 2.6 7.0 0.00 0.00 0.00 70 1010.7
20260504230326 78 203 5.2 9.6 0.00 0.00 0.00 68 1010.7
20260504225332 79 176 4.3 8.7 0.00 0.00 0.00 68 1010.8
20260504224358 79 166 2.6 8.7 0.00 0.00 0.00 69 1010.9
20260504223341 79 166 1.7 6.1 0.00 0.00 0.00 68 1011.0
20260504222327 79 160 2.6 7.0 0.00 0.00 0.00 68 1011.1
20260504221332 79 137 1.7 7.0 0.00 0.00 0.00 66 1011.0
20260504220337 79 167 2.6 7.8 0.00 0.00 0.00 66 1011.2
20260504215328 79 145 1.7 8.7 0.00 0.00 0.00 67 1011.5
20260504214334 79 192 2.6 7.0 0.00 0.00 0.00 66 1011.7
20260504213340 79 168 2.6 7.0 0.00 0.00 0.00 65 1011.7
20260504212327 80 177 3.5 7.8 0.00 0.00 0.00 64 1011.9
20260504211334 80 191 2.6 7.0 0.00 0.00 0.00 65 1012.0
20260504210339 80 139 2.6 6.1 0.00 0.00 0.00 63 1012.1
20260504205327 80 145 2.6 5.2 0.00 0.00 0.00 63 1011.9
20260504204338 80 175 1.7 6.1 0.00 0.00 0.00 64 1012.3
20260504203323 81 140 1.7 7.8 0.00 0.00 0.00 62 1012.4
20260504202327 81 164 1.7 6.1 0.00 0.00 0.00 62 1012.4
20260504201334 81 163 2.6 6.1 0.00 0.00 0.00 61 1012.6
20260504200338 80 154 1.7 7.0 0.00 0.00 0.00 60 1012.9
20260504195326 80 173 1.7 4.3 0.00 0.00 0.00 61 1013.0